Torna al catalogo

COSMOS 375 DEB

AttivoLEO
NORAD 4628·DEBRIS·🇷🇺 Russia

Lanciato Oct 30, 1970 da Baikonur Cosmodrome

Loading…

Prossimi Passaggi (prossime 24 ore)

TLE

AggiornatoSource: Space-Track

Epoca: Sep 14, 2026, 08:20 UTC

1 04628U 70091H   26257.34761088  .00003757  00000-0  51025-3 0  9994
2 04628  62.7480 277.7390 0241080 246.1823 111.3817 14.62392322776629

Traccia COSMOS 375 DEB in tempo reale con AllMySat

Download on the App Store